Hanford, WA
on Thursday, December 13, 2012

Thursday
Previous Day Next Day
Daily Summary
 ActualAverage (KMWH)Record (KMWH)
Temperature
Mean Temperature °F 28°F  
Max Temperature 32°F 34°F 50°F (2001)
Min Temperature 25°F 23°F 7°F (1984)
Degree Days
Heating Degree Days 36 36  
Month to date heating degree days 455  
Since 1 July heating degree days 1916  
Cooling Degree Days 0 0  
Month to date cooling degree days 0  
Year to date cooling degree days 615  
Moisture
Dew Point 31°F   
Average Humidity 98    
Maximum Humidity 100    
Minimum Humidity 93    
Precipitation
Precipitation 0.00 in 0.04 in 0.45 in (1982)
Month to date precipitation 0.48  
Year to date precipitation 8.15  
Wind
Wind Speed 3 mph   
Max Wind Speed 6 mph   
Max Gust Speed mph   
Visibility 1 miles   
Events Fog   

Key: T is trace of precipitation, MM is missing value
Source: NWS Daily Summary
Time(PST)TemperatureDew PointHumidity Pressure Visibility Wind DirectionWind SpeedGust SpeedPrecipitationEvents Conditions
12:50 AM 25.2°F 25.0°F 99% 30.03 in 1.5 miles South 2.3 mph - N/A   Clear
1:50 AM 27.1°F 27.1°F 100% 30.04 in 0.1 miles Calm Calm - N/A Fog Light Freezing Fog
2:50 AM 29.7°F 29.7°F 100% 30.05 in 0.1 miles Calm Calm - N/A Fog Light Freezing Fog
3:50 AM 30.4°F 30.4°F 100% 30.05 in 0.1 miles SW 2.3 mph - N/A Fog Light Freezing Fog
4:50 AM 30.4°F 30.4°F 100% 30.06 in 0.1 miles SW 3.5 mph - N/A Fog Light Freezing Fog
5:50 AM 30.7°F 30.7°F 100% 30.07 in 0.1 miles South 4.6 mph - N/A Fog Light Freezing Fog
6:50 AM 30.9°F 30.9°F 100% 30.07 in 0.2 miles South 3.5 mph - N/A Fog Light Freezing Fog
7:50 AM 31.5°F 31.5°F 100% 30.07 in 0.2 miles South 3.5 mph - N/A Fog Light Freezing Fog
8:50 AM 31.6°F 31.6°F 100% 30.08 in 1.0 miles SSE 2.3 mph - 0.00 in   Light Freezing Drizzle
9:50 AM 31.6°F 31.5°F 99% 30.08 in 1.0 miles SW 3.5 mph - N/A   Light Freezing Drizzle
10:50 AM 31.6°F 31.5°F 99% 30.07 in 2.0 miles South 4.6 mph - N/A   Light Freezing Drizzle
11:50 AM 32.2°F 31.8°F 99% 30.06 in 3.0 miles South 3.5 mph - 0.00 in   Light Drizzle
12:50 PM 32.2°F 31.6°F 98% 30.04 in 2.0 miles SSE 2.3 mph - N/A   Overcast
1:50 PM 32.9°F 31.8°F 96% 30.01 in 2.0 miles SSE 4.6 mph - 0.00 in   Light Drizzle
2:50 PM 32.9°F 31.3°F 94% 29.99 in 1.0 miles East 4.6 mph - 0.00 in   Light Drizzle
3:50 PM 32.4°F 31.6°F 97% 29.96 in 0.8 miles South 4.6 mph - 0.00 in   Light Drizzle
4:50 PM 32.2°F 30.7°F 94% 29.94 in 0.8 miles East 3.5 mph - 0.00 in   Light Drizzle
5:50 PM 32.4°F 31.1°F 95% 29.93 in 0.8 miles NNE 3.5 mph - 0.00 in   Light Drizzle
6:50 PM 32.2°F 30.4°F 93% 29.92 in 0.8 miles North 5.8 mph - 0.00 in   Light Drizzle
10:50 PM 31.8°F 31.6°F 99% 29.91 in 6.0 miles NNW 4.6 mph - N/A   Overcast
11:50 PM 31.8°F 30.7°F 96% 29.90 in 6.0 miles WNW 4.6 mph - N/A   Overcast
Moon Phase
Dec. 13 Dec. 20 Dec. 28 Jan. 04 Jan. 11
Sunrise:07:34 AM (PST) Moon Rise:07:46 AM (PST)12/13
Sunset:04:11 PM (PST) Moon Set:05:01 PM (PST)12/13

Copyright © 2014 The Weather Underground, Inc.